Regional Weather Roundup
Issued by NWS

Home | Current Version | Previous Version | Text Only | Print | Product List | Glossary On
Versions: 1 2 3 4 5 6 7 8 9 10 11 12 13 14 15 16 17 18 19 20 21 22 23 24 25 26 27 28 29 30 31 32 33 34 35 36 37 38 39 40 41 42 43 44 45 46 47 48 49 50
000
ASUS43 KMPX 212210
RWRMN
WEATHER ROUNDUP FOR MINNESOTA
NATIONAL WEATHER SERVICE TWIN CITIES/CHANHASSEN MN
500 PM CDT SUN SEP 21 2014


NOTE: "FAIR" INDICATES FEW OR NO CLOUDS BELOW 12,000 FEET WITH NO
SIGNIFICANT WEATHER AND/OR OBSTRUCTIONS TO VISIBILITY. N/A MEANS
CURRENT SKY AND/OR WEATHER CONDITIONS ARE NOT AVAILABLE.

MNZ060>063-068>070-212300-
   Twin Cities Metro

CITY           SKY/WX    TMP DP  RH WIND       PRES   REMARKS
TWIN CITIES    SUNNY     67  45  45 N14       30.15R
ST PAUL        SUNNY     66  47  50 N13       30.15R
CRYSTAL        SUNNY     68  44  42 N13G18    30.15R
BLAINE         MOSUNNY   68  46  45 N16       30.15R
LAKEVILLE      SUNNY     64  46  52 NW14      30.15R
EDEN PRAIRIE   SUNNY     67  47  48 NW16      30.15R
SOUTH ST PAUL  SUNNY     67  44  44 NW9       30.14S
LAKE ELMO      FAIR      64  46  52 N9G16     30.16R
$$
MNZ001>005-007-008-013>017-022>024-027-028-212300-
   Northwest Minnesota

CITY           SKY/WX    TMP DP  RH WIND       PRES   REMARKS
BEMIDJI        MOSUNNY   60  48  65 W13       30.19S
HALLOCK        MOSUNNY   66  48  52 NW7       30.18F
ROSEAU         SUNNY     63  52  67 NW5       30.19S
WARROAD        CLOUDY    57  52  82 NW7       30.19S
THIEF RVR FALL CLOUDY    59  48  67 W6        30.20F
CROOKSTON      PTSUNNY   63  52  67 N3        30.21F
FOSSTON        CLOUDY    57  50  77 W6        30.22S
DETROIT LAKES  PTSUNNY   59  50  72 N6        30.23F
MOORHEAD       SUNNY     64  54  68 N6        30.22F
PARK RAPIDS    CLOUDY    60  48  64 NW10      30.20R
MAHNOMEN       CLOUDY    58  49  71 NW7       30.22S
$$
MNZ006-009>011-018-025>026-212300-
   North Central Minnesota

CITY           SKY/WX    TMP DP  RH WIND       PRES   REMARKS
BAUDETTE       PTSUNNY   60  49  66 NW8       30.16F
FLAG ISLAND    PTSUNNY   59  50  72 W8        30.15S
INTL FALLS     PTSUNNY   60  47  61 NW8       30.15R
WASKISH        MOSUNNY   59  52  77 SW5       30.17F
BIG FORK       MOSUNNY   63  46  55 CALM      30.17S
LONGVILLE      SUNNY     63  46  55 NW7       30.18S
GRAND RAPIDS   PTSUNNY   61  45  55 NW12      30.17R
CRANE LAKE     SUNNY     59  45  58 NW7       30.16S
ORR            SUNNY     63  41  45 NW7       30.13S
COOK           SUNNY     61  43  51 NW7       30.15S
WALKER         CLOUDY    63  47  57 NW3       30.18S
$$
MNZ012-019>021-037-212300-
   Northeast Minnesota

CITY           SKY/WX    TMP DP  RH WIND       PRES   REMARKS
DULUTH         SUNNY     64  38  38 NW13      30.12S
ELY            SUNNY     57  41  54 NW13      30.13S
HIBBING        SUNNY     64  43  46 NW13      30.15R
EVELETH        SUNNY     61  41  48 N7        30.15S
DULUTH HARBOR  SUNNY     63  45  51 CALM      30.13S
TWO HARBORS    SUNNY     63  43  48 NW7       30.10R
SILVER BAY     SUNNY     61  45  55 NW7       30.09S
GRAND MARAIS     N/A     52  47  83 SW13      30.08S
G MARAIS ARPRT SUNNY     55  34  44 NW7       30.10R
$$
MNZ029>031-032-039>041-046>048-054>057-064-212300-
   West Central Minnesota

CITY           SKY/WX    TMP DP  RH WIND       PRES   REMARKS
FERGUS FALLS   MOSUNNY   63  46  55 NE6       30.22F
WHEATON        MOSUNNY   64  46  52 NW9       30.23F
MORRIS         SUNNY     64  50  59 N10G16    30.21S
ALEXANDRIA     CLOUDY    59  48  67 N10       30.23R
ELBOW LAKE     FAIR      61  49  63 N12       30.22S
WADENA         PTSUNNY   57  46  67 NW8       30.21S
GLENWOOD       PTSUNNY   61  48  63 NW12G17   30.22S
APPLETON       MOSUNNY   68  46  45 N13       30.21S
BENSON         PTSUNNY   66  52  59 NE7G20    30.21S
ORTONVILLE     MOSUNNY   66  46  48 N9        30.21S
MADISON        SUNNY     68  50  52 N9G18     30.22R
WILLMAR        FAIR      63  48  59 N10G17    30.22S
$$
MNZ033>034-036-042>043-049>051-058-059-212300-
   Central Minnesota

CITY           SKY/WX    TMP DP  RH WIND       PRES   REMARKS
ST CLOUD       MOSUNNY   67  47  48 NW10      30.16R
SAUK CENTRE    MOCLDY    60  49  67 NW12G18   30.21R
PAYNESVILLE    SUNNY     59  49  71 W8        30.21R
AITKIN         SUNNY     66  46  48 NW5       30.15S
PINE RIVER     MOSUNNY   61  48  63 NW7       30.21R
BRAINERD       SUNNY     63  46  54 N10       30.18S
STAPLES        CLOUDY    61  48  63 NW14      30.20R
LONG PRAIRIE   FAIR      61  48  63 W10G16    30.21R
LITTLE FALLS   PTSUNNY   63  46  55 NW7       30.18S
LITCHFIELD     MOSUNNY   64  52  63 NW12      30.19S
BUFFALO        MOSUNNY   65  46  50 NW7       30.18R
MAPLE LAKE     SUNNY     66  50  54 NW10      30.18R
$$
MNZ037-044-045-052-053-212300-
   East Central Minnesota

CITY           SKY/WX    TMP DP  RH WIND       PRES   REMARKS
PRINCETON      SUNNY     68  46  45 NW10      30.16R
MORA           SUNNY     63  46  55 NW9       30.17S
CAMBRIDGE      SUNNY     66  48  52 NW8       30.14S
RUSH CITY      MOSUNNY   64  45  49 NW7       30.16R
MOOSE LAKE     SUNNY     63  45  51 NW8       30.13R
HINCKLEY       FAIR      63  46  55 NW8       30.15R
CLOQUET        SUNNY     63  37  39 NW13      30.14R
MCGREGOR       SUNNY     63  45  51 N9        30.16S
$$
MNZ071>073-080-081-089-090-097-098-212300-
   Southwest Minnesota

CITY           SKY/WX    TMP DP  RH WIND       PRES   REMARKS
MONTEVIDEO     SUNNY     66  48  52 NE13      30.22S
GRANITE FALLS  MOSUNNY   64  49  57 N10       30.23S
CANBY          MOSUNNY   66  49  53 N10       30.23S
MARSHALL       MOSUNNY   66  45  45 N14G20    30.21R
REDWOOD FALLS  PTSUNNY   66  50  56 NW13      30.20R
OLIVIA         PTSUNNY   63  48  59 NW13      30.20R
PIPESTONE      MOSUNNY   68  45  42 N8        30.22S
WINDOM         MOSUNNY   66  46  48 NW13G20   30.21S
WORTHINGTON    MOSUNNY   64  45  48 N13       30.23R
JACKSON        MOSUNNY   66  45  45 NW16      30.22R
TRACY          MOSUNNY   67  47  49 N9        30.22S
SLAYTON        SUNNY     65  44  47 NW15      30.23S
$$
MNZ065>067-074>077-082>085-091>093-212300-
   South Central Minnesota

CITY           SKY/WX    TMP DP  RH WIND       PRES   REMARKS
MANKATO        PTSUNNY   64  45  48 NW17      30.17S
NEW ULM        PTSUNNY   64  52  63 NW10      30.19R
ST JAMES       PTSUNNY   66  48  52 NW10G16   30.20S
FAIRMONT       CLOUDY    64  45  48 NW15      30.19S
GLENCOE        MOSUNNY   66  47  50 NW12      30.17S
FARIBAULT      MOSUNNY   70  43  37 NW12      30.16S
OWATONNA       MOSUNNY   64  48  55 N12       30.16R
WASECA         MOSUNNY   61  43  51 NW13      30.18S
ALBERT LEA     MOSUNNY   64  46  52 NW12G20   30.16S
$$
MNZ078>079-086>088-094>096-212300-
   Southeast Minnesota

CITY           SKY/WX    TMP DP  RH WIND       PRES   REMARKS
ROCHESTER      SUNNY     62  45  53 NW15      30.15R
RED WING       SUNNY     66  43  42 NW9G17    30.13R
STANTON        MOSUNNY   66  46  47 N10G17    30.13S
DODGE CENTER   MOSUNNY   63  48  59 N13       30.15R
WINONA         MOSUNNY   66  46  48 N10G16    30.12R
AUSTIN         MOSUNNY   63  48  59 NW12G18   30.15S
PRESTON        MOSUNNY   62  51  68 NW14      30.14R
$$
ABBREVIATIONS USED IN REMARKS
   TC - TEMPERATURES IN CELSIUS
  WCI - WIND CHILL INDEX
   HX - HEAT INDEX
  VSB - VISIBILITY
$$



USA.gov is the U.S. government's official web portal to all federal, state and local government web resources and services.